Location: Brookfield Center
(41.2406°N, 80.5579°W)
Time: 16:41:20
(UTC+00:00)

Cosmos 923 Rocket - Pass Details

Date: 18 January 2020
Orbit: 758 x 786 km, 74.0° (Epoch: 26 February)

Event Time Altitude Azimuth Distance (km) Brightness Sun altitude
Rises 11:19:54 0° 190° (S) 3,213 7.3 -15.7°
Reaches altitude 10° 11:22:16 10° 188° (S) 2,295 6.5 -15.3°
Maximum altitude 11:27:25 68° 106° (ESE) 832 4.4 -14.3°
Drops below altitude 10° 11:32:40 10° 25° (NNE) 2,330 6.6 -13.4°
Sets 11:35:05 0° 23° (NNE) 3,266 7.3 -12.9°
